Time,TemperatureF,DewpointF,PressureIn,WindDirection,WindDirectionDegrees,WindSpeedMPH,WindSpeedGustMPH,Humidity,HourlyPrecipIn,Conditions,Clouds,dailyrainin,SoftwareType,DateUTC
2013-11-05 00:05:00,48.9,23.7,30.27,SE,133,2.0,5.0,37,0.00,,,0.00,Wunderground v.1.15,2013-11-05 08:05:00,
2013-11-05 00:10:00,49.0,23.2,30.27,SE,142,3.0,3.0,36,0.00,,,0.00,Wunderground v.1.15,2013-11-05 08:10:00,
2013-11-05 00:15:00,49.2,22.7,30.27,SE,136,3.0,4.0,35,0.00,,,0.00,Wunderground v.1.15,2013-11-05 08:15:00,
2013-11-05 00:20:00,49.5,22.9,30.27,SE,132,4.0,4.0,35,0.00,,,0.00,Wunderground v.1.15,2013-11-05 08:20:00,
2013-11-05 00:30:00,48.9,22.4,30.27,SE,141,3.0,3.0,35,0.00,,,0.00,Wunderground v.1.15,2013-11-05 08:30:00,
2013-11-05 00:35:00,48.5,22.1,30.27,SE,141,2.0,8.0,35,0.00,,,0.00,Wunderground v.1.15,2013-11-05 08:35:00,
2013-11-05 00:45:00,48.7,22.2,30.28,SE,138,3.0,8.0,35,0.00,,,0.00,Wunderground v.1.15,2013-11-05 08:45:00,
2013-11-05 00:55:00,49.2,22.0,30.28,SE,145,4.0,9.0,34,0.00,,,0.00,Wunderground v.1.15,2013-11-05 08:55:00,
2013-11-05 01:05:00,49.8,21.8,30.29,SSE,151,5.0,9.0,33,0.00,,,0.00,Wunderground v.1.15,2013-11-05 09:05:00,
2013-11-05 01:10:00,49.7,21.7,30.29,SSE,153,5.0,5.0,33,0.00,,,0.00,Wunderground v.1.15,2013-11-05 09:10:00,
2013-11-05 01:15:00,49.2,21.3,30.29,SSE,148,4.0,9.0,33,0.00,,,0.00,Wunderground v.1.15,2013-11-05 09:15:00,
2013-11-05 01:20:00,48.9,21.7,30.30,ESE,119,4.0,4.0,34,0.00,,,0.00,Wunderground v.1.15,2013-11-05 09:20:00,
2013-11-05 01:30:00,49.7,21.7,30.30,East,84,5.0,12.0,33,0.00,,,0.00,Wunderground v.1.15,2013-11-05 09:30:00,
2013-11-05 01:35:00,49.9,21.2,30.29,SE,125,6.0,12.0,32,0.00,,,0.00,Wunderground v.1.15,2013-11-05 09:35:00,
2013-11-05 01:45:00,49.7,21.0,30.29,ESE,121,7.0,12.0,32,0.00,,,0.00,Wunderground v.1.15,2013-11-05 09:45:00,
2013-11-05 01:50:00,49.8,20.3,30.30,SSE,148,7.0,13.0,31,0.00,,,0.00,Wunderground v.1.15,2013-11-05 09:50:00,
2013-11-05 02:00:00,49.2,20.6,30.30,SE,144,6.0,6.0,32,0.00,,,0.00,Wunderground v.1.15,2013-11-05 10:00:00,
2013-11-05 02:05:00,48.5,20.7,30.30,SSE,147,5.0,9.0,33,0.00,,,0.00,Wunderground v.1.15,2013-11-05 10:05:00,
2013-11-05 02:15:00,47.9,20.8,30.29,SSE,167,5.0,13.0,34,0.00,,,0.00,Wunderground v.1.15,2013-11-05 10:15:00,
2013-11-05 02:20:00,48.7,20.8,30.29,SE,145,7.0,7.0,33,0.00,,,0.00,Wunderground v.1.15,2013-11-05 10:20:00,
2013-11-05 02:30:00,48.6,20.8,30.30,SSE,167,8.0,14.0,33,0.00,,,0.00,Wunderground v.1.15,2013-11-05 10:30:00,
2013-11-05 02:35:00,48.2,20.4,30.30,SE,144,8.0,14.0,33,0.00,,,0.00,Wunderground v.1.15,2013-11-05 10:35:00,
2013-11-05 02:40:00,48.3,20.5,30.31,SE,127,7.0,7.0,33,0.00,,,0.00,Wunderground v.1.15,2013-11-05 10:40:00,
2013-11-05 02:45:00,48.4,20.6,30.31,SE,137,7.0,14.0,33,0.00,,,0.00,Wunderground v.1.15,2013-11-05 10:45:00,
2013-11-05 02:55:00,49.3,20.6,30.31,SE,146,7.0,8.0,32,0.00,,,0.00,Wunderground v.1.15,2013-11-05 10:55:00,
2013-11-05 03:00:00,49.2,20.6,30.32,SSE,152,8.0,15.0,32,0.00,,,0.00,Wunderground v.1.15,2013-11-05 11:00:00,
2013-11-05 03:05:00,48.8,20.2,30.32,SSE,147,8.0,15.0,32,0.00,,,0.00,Wunderground v.1.15,2013-11-05 11:05:00,
2013-11-05 03:15:00,48.3,19.8,30.33,SSE,150,9.0,11.0,32,0.00,,,0.00,Wunderground v.1.15,2013-11-05 11:15:00,
2013-11-05 03:20:00,48.4,19.1,30.33,SE,130,8.0,14.0,31,0.00,,,0.00,Wunderground v.1.15,2013-11-05 11:20:00,
2013-11-05 03:30:00,47.9,18.7,30.33,SE,129,7.0,14.0,31,0.00,,,0.00,Wunderground v.1.15,2013-11-05 11:30:00,
2013-11-05 03:35:00,47.7,17.7,30.34,SE,127,6.0,14.0,30,0.00,,,0.00,Wunderground v.1.15,2013-11-05 11:35:00,
2013-11-05 03:45:00,47.8,17.8,30.34,SE,127,5.0,14.0,30,0.00,,,0.00,Wunderground v.1.15,2013-11-05 11:45:00,
2013-11-05 03:50:00,47.8,17.8,30.34,SE,130,6.0,15.0,30,0.00,,,0.00,Wunderground v.1.15,2013-11-05 11:50:00,
2013-11-05 03:55:00,47.9,17.9,30.34,ESE,117,6.0,15.0,30,0.00,,,0.00,Wunderground v.1.15,2013-11-05 11:55:00,
2013-11-05 04:00:00,47.9,17.9,30.34,SE,135,6.0,6.0,30,0.00,,,0.00,Wunderground v.1.15,2013-11-05 12:00:00,
2013-11-05 04:05:00,47.7,17.7,30.35,SE,129,7.0,7.0,30,0.00,,,0.00,Wunderground v.1.15,2013-11-05 12:05:00,
2013-11-05 04:15:00,48.0,17.2,30.35,SE,129,8.0,15.0,29,0.00,,,0.00,Wunderground v.1.15,2013-11-05 12:15:00,
2013-11-05 04:25:00,47.3,17.4,30.36,SSE,152,7.0,15.0,30,0.00,,,0.00,Wunderground v.1.15,2013-11-05 12:25:00,
2013-11-05 04:30:00,47.0,17.1,30.36,SSE,151,7.0,15.0,30,0.00,,,0.00,Wunderground v.1.15,2013-11-05 12:30:00,
2013-11-05 04:35:00,47.2,17.3,30.36,SE,125,7.0,15.0,30,0.00,,,0.00,Wunderground v.1.15,2013-11-05 12:35:00,
2013-11-05 04:45:00,47.3,17.4,30.37,SE,134,7.0,15.0,30,0.00,,,0.00,Wunderground v.1.15,2013-11-05 12:45:00,
2013-11-05 04:50:00,47.1,17.2,30.37,SSE,150,7.0,15.0,30,0.00,,,0.00,Wunderground v.1.15,2013-11-05 12:50:00,
2013-11-05 05:00:00,47.0,17.1,30.36,SSE,155,8.0,15.0,30,0.00,,,0.00,Wunderground v.1.15,2013-11-05 13:00:00,
2013-11-05 05:05:00,46.7,16.9,30.37,SE,140,8.0,15.0,30,0.00,,,0.00,Wunderground v.1.15,2013-11-05 13:05:00,
2013-11-05 05:15:00,46.5,17.4,30.37,SE,134,7.0,15.0,31,0.00,,,0.00,Wunderground v.1.15,2013-11-05 13:15:00,
2013-11-05 05:20:00,46.2,17.2,30.37,SE,144,6.0,15.0,31,0.00,,,0.00,Wunderground v.1.15,2013-11-05 13:20:00,
2013-11-05 05:30:00,45.6,16.7,30.38,SE,132,5.0,5.0,31,0.00,,,0.00,Wunderground v.1.15,2013-11-05 13:30:00,
2013-11-05 05:35:00,45.6,16.7,30.37,ESE,104,5.0,8.0,31,0.00,,,0.00,Wunderground v.1.15,2013-11-05 13:35:00,
2013-11-05 05:45:00,46.0,16.3,30.38,SE,135,6.0,15.0,30,0.00,,,0.00,Wunderground v.1.15,2013-11-05 13:45:00,
2013-11-05 05:50:00,45.9,16.2,30.38,ESE,104,6.0,6.0,30,0.00,,,0.00,Wunderground v.1.15,2013-11-05 13:50:00,
2013-11-05 05:55:00,45.9,16.2,30.39,ESE,102,6.0,13.0,30,0.00,,,0.00,Wunderground v.1.15,2013-11-05 13:55:00,
2013-11-05 06:00:00,45.8,16.1,30.39,East,79,6.0,13.0,30,0.00,,,0.00,Wunderground v.1.15,2013-11-05 14:00:00,
2013-11-05 06:05:00,45.6,15.9,30.40,SE,138,5.0,13.0,30,0.00,,,0.00,Wunderground v.1.15,2013-11-05 14:05:00,
2013-11-05 06:15:00,45.0,15.4,30.40,SE,125,4.0,13.0,30,0.00,,,0.00,Wunderground v.1.15,2013-11-05 14:15:00,
2013-11-05 06:20:00,45.1,15.5,30.40,SE,129,4.0,11.0,30,0.00,,,0.00,Wunderground v.1.15,2013-11-05 14:20:00,
2013-11-05 06:25:00,44.9,15.3,30.41,ESE,118,4.0,11.0,30,0.00,,,0.00,Wunderground v.1.15,2013-11-05 14:25:00,
2013-11-05 06:35:00,44.7,15.9,30.42,SE,127,3.0,11.0,31,0.00,,,0.00,Wunderground v.1.15,2013-11-05 14:35:00,
2013-11-05 06:40:00,44.8,15.2,30.42,ESE,109,3.0,11.0,30,0.00,,,0.00,Wunderground v.1.15,2013-11-05 14:40:00,
2013-11-05 06:45:00,45.1,15.5,30.42,SE,127,3.0,11.0,30,0.00,,,0.00,Wunderground v.1.15,2013-11-05 14:45:00,
2013-11-05 06:55:00,45.6,15.1,30.43,SE,142,3.0,5.0,29,0.00,,,0.00,Wunderground v.1.15,2013-11-05 14:55:00,
2013-11-05 07:00:00,45.8,14.5,30.43,SE,125,4.0,11.0,28,0.00,,,0.00,Wunderground v.1.15,2013-11-05 15:00:00,
2013-11-05 07:05:00,45.9,14.6,30.43,SE,138,5.0,11.0,28,0.00,,,0.00,Wunderground v.1.15,2013-11-05 15:05:00,
2013-11-05 07:15:00,46.6,14.4,30.43,ESE,122,7.0,11.0,27,0.00,,,0.00,Wunderground v.1.15,2013-11-05 15:15:00,
2013-11-05 07:20:00,47.0,14.7,30.44,SE,129,7.0,11.0,27,0.00,,,0.00,Wunderground v.1.15,2013-11-05 15:20:00,
2013-11-05 07:25:00,47.2,14.0,30.44,SE,125,7.0,11.0,26,0.00,,,0.00,Wunderground v.1.15,2013-11-05 15:25:00,
2013-11-05 07:30:00,47.5,14.3,30.45,ESE,102,7.0,7.0,26,0.00,,,0.00,Wunderground v.1.15,2013-11-05 15:30:00,
2013-11-05 07:40:00,47.8,13.6,30.45,SE,134,7.0,11.0,25,0.00,,,0.00,Wunderground v.1.15,2013-11-05 15:40:00,
2013-11-05 07:45:00,48.0,13.8,30.45,East,89,8.0,11.0,25,0.00,,,0.00,Wunderground v.1.15,2013-11-05 15:45:00,
2013-11-05 07:50:00,48.2,14.0,30.45,SE,132,7.0,7.0,25,0.00,,,0.00,Wunderground v.1.15,2013-11-05 15:50:00,
2013-11-05 08:00:00,48.4,13.2,30.46,ESE,106,8.0,14.0,24,0.00,,,0.00,Wunderground v.1.15,2013-11-05 16:00:00,
2013-11-05 08:05:00,48.7,13.5,30.46,SE,133,9.0,14.0,24,0.00,,,0.00,Wunderground v.1.15,2013-11-05 16:05:00,
2013-11-05 08:15:00,49.2,13.9,30.46,ESE,112,8.0,14.0,24,0.00,,,0.00,Wunderground v.1.15,2013-11-05 16:15:00,
2013-11-05 08:20:00,49.3,13.0,30.46,ESE,119,7.0,17.0,23,0.00,,,0.00,Wunderground v.1.15,2013-11-05 16:20:00,
2013-11-05 08:30:00,49.6,13.3,30.46,ESE,104,9.0,17.0,23,0.00,,,0.00,Wunderground v.1.15,2013-11-05 16:30:00,
2013-11-05 08:35:00,50.2,13.8,30.47,East,94,8.0,17.0,23,0.00,,,0.00,Wunderground v.1.15,2013-11-05 16:35:00,
2013-11-05 08:40:00,50.1,12.7,30.47,East,94,9.0,17.0,22,0.00,,,0.00,Wunderground v.1.15,2013-11-05 16:40:00,
2013-11-05 08:50:00,49.9,12.5,30.47,ESE,111,10.0,17.0,22,0.00,,,0.00,Wunderground v.1.15,2013-11-05 16:50:00,
2013-11-05 08:55:00,49.9,12.5,30.47,ESE,108,10.0,17.0,22,0.00,,,0.00,Wunderground v.1.15,2013-11-05 16:55:00,
2013-11-05 09:05:00,50.1,12.7,30.48,ESE,118,11.0,16.0,22,0.00,,,0.00,Wunderground v.1.15,2013-11-05 17:05:00,
2013-11-05 09:10:00,50.4,12.9,30.48,East,98,11.0,11.0,22,0.00,,,0.00,Wunderground v.1.15,2013-11-05 17:10:00,
2013-11-05 09:15:00,50.3,12.8,30.48,ESE,102,11.0,16.0,22,0.00,,,0.00,Wunderground v.1.15,2013-11-05 17:15:00,
2013-11-05 09:25:00,51.3,12.6,30.49,ESE,111,9.0,25.0,21,0.00,,,0.00,Wunderground v.1.15,2013-11-05 17:25:00,
2013-11-05 09:30:00,50.7,11.0,30.49,East,100,8.0,25.0,20,0.00,,,0.00,Wunderground v.1.15,2013-11-05 17:30:00,
2013-11-05 09:35:00,50.6,12.0,30.49,SE,128,11.0,25.0,21,0.00,,,0.00,Wunderground v.1.15,2013-11-05 17:35:00,
2013-11-05 09:45:00,50.9,11.2,30.49,East,79,11.0,25.0,20,0.00,,,0.00,Wunderground v.1.15,2013-11-05 17:45:00,
2013-11-05 09:50:00,51.1,11.4,30.49,SE,139,10.0,21.0,20,0.00,,,0.00,Wunderground v.1.15,2013-11-05 17:50:00,
2013-11-05 10:00:00,50.8,11.1,30.49,East,89,10.0,10.0,20,0.00,,,0.00,Wunderground v.1.15,2013-11-05 18:00:00,
2013-11-05 10:05:00,51.2,10.3,30.49,ESE,109,9.0,12.0,19,0.00,,,0.00,Wunderground v.1.15,2013-11-05 18:05:00,
2013-11-05 10:10:00,50.8,11.1,30.49,SE,135,8.0,21.0,20,0.00,,,0.00,Wunderground v.1.15,2013-11-05 18:10:00,
2013-11-05 10:20:00,50.8,11.1,30.49,SE,125,11.0,11.0,20,0.00,,,0.00,Wunderground v.1.15,2013-11-05 18:20:00,
2013-11-05 10:25:00,50.9,11.2,30.49,SSE,147,11.0,20.0,20,0.00,,,0.00,Wunderground v.1.15,2013-11-05 18:25:00,
2013-11-05 10:35:00,51.6,10.6,30.49,SE,139,10.0,20.0,19,0.00,,,0.00,Wunderground v.1.15,2013-11-05 18:35:00,
2013-11-05 10:45:00,51.9,12.0,30.49,SE,145,10.0,20.0,20,0.00,,,0.00,Wunderground v.1.15,2013-11-05 18:45:00,
2013-11-05 10:50:00,52.2,11.1,30.49,East,94,9.0,17.0,19,0.00,,,0.00,Wunderground v.1.15,2013-11-05 18:50:00,
2013-11-05 11:00:00,51.9,9.6,30.49,East,101,10.0,10.0,18,0.00,,,0.00,Wunderground v.1.15,2013-11-05 19:00:00,
2013-11-05 11:05:00,51.8,9.6,30.49,SSE,150,9.0,17.0,18,0.00,,,0.00,Wunderground v.1.15,2013-11-05 19:05:00,
2013-11-05 11:15:00,51.8,9.6,30.48,SE,125,11.0,14.0,18,0.00,,,0.00,Wunderground v.1.15,2013-11-05 19:15:00,
2013-11-05 11:20:00,51.8,9.6,30.49,East,84,13.0,13.0,18,0.00,,,0.00,Wunderground v.1.15,2013-11-05 19:20:00,
2013-11-05 11:25:00,52.2,9.9,30.48,SSE,147,12.0,20.0,18,0.00,,,0.00,Wunderground v.1.15,2013-11-05 19:25:00,
2013-11-05 11:35:00,52.1,8.5,30.48,SE,138,11.0,20.0,17,0.00,,,0.00,Wunderground v.1.15,2013-11-05 19:35:00,
2013-11-05 11:40:00,52.1,8.5,30.48,ESE,123,12.0,12.0,17,0.00,,,0.00,Wunderground v.1.15,2013-11-05 19:40:00,
2013-11-05 11:50:00,52.7,9.0,30.48,SE,140,12.0,12.0,17,0.00,,,0.00,Wunderground v.1.15,2013-11-05 19:50:00,
2013-11-05 12:00:00,53.3,9.5,30.48,SE,138,11.0,11.0,17,0.00,,,0.00,Wunderground v.1.15,2013-11-05 20:00:00,
2013-11-05 12:10:00,53.0,7.9,30.47,ESE,113,12.0,22.0,16,0.00,,,0.00,Wunderground v.1.15,2013-11-05 20:10:00,
2013-11-05 12:15:00,53.5,8.3,30.47,SE,131,12.0,22.0,16,0.00,,,0.00,Wunderground v.1.15,2013-11-05 20:15:00,
2013-11-05 12:20:00,53.1,8.0,30.47,ESE,119,12.0,12.0,16,0.00,,,0.00,Wunderground v.1.15,2013-11-05 20:20:00,
2013-11-05 12:30:00,53.8,7.1,30.46,SE,127,11.0,23.0,15,0.00,,,0.00,Wunderground v.1.15,2013-11-05 20:30:00,
2013-11-05 12:35:00,53.8,7.1,30.46,East,89,12.0,23.0,15,0.00,,,0.00,Wunderground v.1.15,2013-11-05 20:35:00,
2013-11-05 12:40:00,54.0,7.3,30.47,SE,128,11.0,11.0,15,0.00,,,0.00,Wunderground v.1.15,2013-11-05 20:40:00,
2013-11-05 12:45:00,54.9,8.0,30.47,ESE,116,8.0,23.0,15,0.00,,,0.00,Wunderground v.1.15,2013-11-05 20:45:00,
2013-11-05 12:55:00,54.6,6.3,30.45,East,94,9.0,23.0,14,0.00,,,0.00,Wunderground v.1.15,2013-11-05 20:55:00,
2013-11-05 13:00:00,54.7,6.3,30.45,SE,141,10.0,23.0,14,0.00,,,0.00,Wunderground v.1.15,2013-11-05 21:00:00,
2013-11-05 13:05:00,54.7,6.3,30.45,ESE,109,11.0,23.0,14,0.00,,,0.00,Wunderground v.1.15,2013-11-05 21:05:00,
2013-11-05 13:15:00,54.8,6.4,30.46,ESE,119,11.0,12.0,14,0.00,,,0.00,Wunderground v.1.15,2013-11-05 21:15:00,
2013-11-05 13:20:00,54.8,6.4,30.46,ESE,116,10.0,23.0,14,0.00,,,0.00,Wunderground v.1.15,2013-11-05 21:20:00,
2013-11-05 13:30:00,54.7,6.3,30.46,ESE,119,9.0,23.0,14,0.00,,,0.00,Wunderground v.1.15,2013-11-05 21:30:00,
2013-11-05 13:35:00,54.6,6.3,30.46,SE,127,10.0,23.0,14,0.00,,,0.00,Wunderground v.1.15,2013-11-05 21:35:00,
2013-11-05 13:45:00,54.6,6.3,30.46,ESE,115,10.0,23.0,14,0.00,,,0.00,Wunderground v.1.15,2013-11-05 21:45:00,
2013-11-05 13:50:00,54.8,6.4,30.46,SE,143,9.0,22.0,14,0.00,,,0.00,Wunderground v.1.15,2013-11-05 21:50:00,
2013-11-05 13:55:00,55.0,6.6,30.47,SE,144,10.0,22.0,14,0.00,,,0.00,Wunderground v.1.15,2013-11-05 21:55:00,
2013-11-05 14:00:00,55.2,6.7,30.47,SE,135,9.0,22.0,14,0.00,,,0.00,Wunderground v.1.15,2013-11-05 22:00:00,
2013-11-05 14:05:00,54.4,6.1,30.47,ESE,121,11.0,22.0,14,0.00,,,0.00,Wunderground v.1.15,2013-11-05 22:05:00,
2013-11-05 14:15:00,54.4,7.6,30.46,SE,127,12.0,22.0,15,0.00,,,0.00,Wunderground v.1.15,2013-11-05 22:15:00,
2013-11-05 14:20:00,54.5,7.7,30.47,SSE,157,11.0,11.0,15,0.00,,,0.00,Wunderground v.1.15,2013-11-05 22:20:00,
2013-11-05 14:30:00,54.9,8.0,30.47,SSE,162,10.0,21.0,15,0.00,,,0.00,Wunderground v.1.15,2013-11-05 22:30:00,
2013-11-05 14:35:00,54.6,7.8,30.47,SE,133,10.0,21.0,15,0.00,,,0.00,Wunderground v.1.15,2013-11-05 22:35:00,
2013-11-05 14:45:00,54.7,7.9,30.47,SE,126,10.0,13.0,15,0.00,,,0.00,Wunderground v.1.15,2013-11-05 22:45:00,
2013-11-05 14:50:00,54.5,7.7,30.47,SE,133,10.0,23.0,15,0.00,,,0.00,Wunderground v.1.15,2013-11-05 22:50:00,
2013-11-05 15:00:00,54.3,7.5,30.47,SE,143,11.0,11.0,15,0.00,,,0.00,Wunderground v.1.15,2013-11-05 23:00:00,
2013-11-05 15:10:00,54.6,7.8,30.47,SE,126,9.0,23.0,15,0.00,,,0.00,Wunderground v.1.15,2013-11-05 23:10:00,
2013-11-05 15:20:00,54.7,6.3,30.47,SE,140,8.0,19.0,14,0.00,,,0.00,Wunderground v.1.15,2013-11-05 23:20:00,
2013-11-05 15:25:00,54.8,8.0,30.47,SE,144,8.0,19.0,15,0.00,,,0.00,Wunderground v.1.15,2013-11-05 23:25:00,
2013-11-05 15:35:00,54.4,7.6,30.48,SSE,147,9.0,10.0,15,0.00,,,0.00,Wunderground v.1.15,2013-11-05 23:35:00,
2013-11-05 15:40:00,54.5,7.7,30.48,ESE,114,8.0,8.0,15,0.00,,,0.00,Wunderground v.1.15,2013-11-05 23:40:00,
2013-11-05 15:45:00,54.5,7.7,30.48,East,98,9.0,10.0,15,0.00,,,0.00,Wunderground v.1.15,2013-11-05 23:45:00,
2013-11-05 15:50:00,54.4,7.6,30.48,SSE,154,9.0,18.0,15,0.00,,,0.00,Wunderground v.1.15,2013-11-05 23:50:00,
2013-11-05 16:00:00,54.1,7.4,30.49,SE,131,9.0,9.0,15,0.00,,,0.00,Wunderground v.1.15,2013-11-06 00:00:00,
2013-11-05 16:05:00,53.9,7.2,30.49,SSE,158,8.0,18.0,15,0.00,,,0.00,Wunderground v.1.15,2013-11-06 00:05:00,
2013-11-05 16:15:00,53.7,7.1,30.49,SE,143,8.0,18.0,15,0.00,,,0.00,Wunderground v.1.15,2013-11-06 00:15:00,
2013-11-05 16:20:00,53.6,7.0,30.49,SE,141,7.0,18.0,15,0.00,,,0.00,Wunderground v.1.15,2013-11-06 00:20:00,
2013-11-05 16:25:00,53.3,6.7,30.49,SE,124,7.0,18.0,15,0.00,,,0.00,Wunderground v.1.15,2013-11-06 00:25:00,
2013-11-05 16:35:00,52.8,6.3,30.49,SE,125,8.0,18.0,15,0.00,,,0.00,Wunderground v.1.15,2013-11-06 00:35:00,
2013-11-05 16:40:00,52.5,6.1,30.49,SE,134,7.0,7.0,15,0.00,,,0.00,Wunderground v.1.15,2013-11-06 00:40:00,
2013-11-05 16:45:00,52.2,5.9,30.49,SE,146,6.0,18.0,15,0.00,,,0.00,Wunderground v.1.15,2013-11-06 00:45:00,
2013-11-05 16:55:00,51.8,6.9,30.50,SSE,152,6.0,14.0,16,0.00,,,0.00,Wunderground v.1.15,2013-11-06 00:55:00,
2013-11-05 17:00:00,51.5,6.7,30.50,SE,125,5.0,5.0,16,0.00,,,0.00,Wunderground v.1.15,2013-11-06 01:00:00,
2013-11-05 17:05:00,51.3,6.5,30.50,SSE,154,5.0,14.0,16,0.00,,,0.00,Wunderground v.1.15,2013-11-06 01:05:00,
2013-11-05 17:15:00,50.8,7.5,30.50,SE,146,4.0,14.0,17,0.00,,,0.00,Wunderground v.1.15,2013-11-06 01:15:00,
2013-11-05 17:20:00,50.5,7.2,30.50,SE,146,4.0,12.0,17,0.00,,,0.00,Wunderground v.1.15,2013-11-06 01:20:00,
2013-11-05 17:30:00,50.1,6.9,30.50,SSE,151,3.0,12.0,17,0.00,,,0.00,Wunderground v.1.15,2013-11-06 01:30:00,
2013-11-05 17:35:00,50.0,6.8,30.50,SSE,147,4.0,12.0,17,0.00,,,0.00,Wunderground v.1.15,2013-11-06 01:35:00,
2013-11-05 17:45:00,49.7,6.6,30.51,SSE,150,5.0,12.0,17,0.00,,,0.00,Wunderground v.1.15,2013-11-06 01:45:00,
2013-11-05 17:50:00,49.5,7.7,30.51,SE,146,3.0,8.0,18,0.00,,,0.00,Wunderground v.1.15,2013-11-06 01:50:00,
2013-11-05 18:00:00,49.4,7.6,30.51,SSE,148,4.0,8.0,18,0.00,,,0.00,Wunderground v.1.15,2013-11-06 02:00:00,
2013-11-05 18:05:00,49.0,7.3,30.51,SSE,147,4.0,8.0,18,0.00,,,0.00,Wunderground v.1.15,2013-11-06 02:05:00,
2013-11-05 18:15:00,48.5,6.8,30.52,SSE,155,3.0,8.0,18,0.00,,,0.00,Wunderground v.1.15,2013-11-06 02:15:00,
2013-11-05 18:25:00,48.2,7.8,30.52,SE,138,3.0,9.0,19,0.00,,,0.00,Wunderground v.1.15,2013-11-06 02:25:00,
2013-11-05 18:30:00,48.0,7.6,30.52,SE,139,3.0,3.0,19,0.00,,,0.00,Wunderground v.1.15,2013-11-06 02:30:00,
2013-11-05 18:35:00,47.7,7.4,30.52,SE,139,1.0,9.0,19,0.00,,,0.00,Wunderground v.1.15,2013-11-06 02:35:00,
2013-11-05 18:45:00,47.0,7.9,30.53,SE,139,0.0,9.0,20,0.00,,,0.00,Wunderground v.1.15,2013-11-06 02:45:00,
2013-11-05 18:50:00,46.9,7.8,30.53,SE,139,0.0,5.0,20,0.00,,,0.00,Wunderground v.1.15,2013-11-06 02:50:00,
2013-11-05 19:00:00,47.3,8.2,30.54,ESE,121,1.0,5.0,20,0.00,,,0.00,Wunderground v.1.15,2013-11-06 03:00:00,
2013-11-05 19:05:00,48.0,7.6,30.54,ESE,121,3.0,5.0,19,0.00,,,0.00,Wunderground v.1.15,2013-11-06 03:05:00,
2013-11-05 19:15:00,48.5,8.0,30.54,SE,134,3.0,5.0,19,0.00,,,0.00,Wunderground v.1.15,2013-11-06 03:15:00,
2013-11-05 19:20:00,47.9,7.5,30.54,SE,134,3.0,3.0,19,0.00,,,0.00,Wunderground v.1.15,2013-11-06 03:20:00,
2013-11-05 19:30:00,46.7,7.7,30.54,SE,135,2.0,7.0,20,0.00,,,0.00,Wunderground v.1.15,2013-11-06 03:30:00,
2013-11-05 19:35:00,46.8,7.8,30.54,SE,142,2.0,7.0,20,0.00,,,0.00,Wunderground v.1.15,2013-11-06 03:35:00,
2013-11-05 19:40:00,47.6,8.4,30.54,SE,136,3.0,7.0,20,0.00,,,0.00,Wunderground v.1.15,2013-11-06 03:40:00,
2013-11-05 19:50:00,48.1,7.7,30.54,SE,127,3.0,8.0,19,0.00,,,0.00,Wunderground v.1.15,2013-11-06 03:50:00,
2013-11-05 19:55:00,48.2,7.8,30.54,SE,131,4.0,8.0,19,0.00,,,0.00,Wunderground v.1.15,2013-11-06 03:55:00,
2013-11-05 20:00:00,48.3,7.9,30.54,SE,142,4.0,4.0,19,0.00,,,0.00,Wunderground v.1.15,2013-11-06 04:00:00,
2013-11-05 20:05:00,48.1,7.7,30.54,SE,137,3.0,5.0,19,0.00,,,0.00,Wunderground v.1.15,2013-11-06 04:05:00,
2013-11-05 20:15:00,48.2,7.8,30.55,SE,140,3.0,8.0,19,0.00,,,0.00,Wunderground v.1.15,2013-11-06 04:15:00,
2013-11-05 20:20:00,48.1,7.7,30.55,SE,140,3.0,8.0,19,0.00,,,0.00,Wunderground v.1.15,2013-11-06 04:20:00,
2013-11-05 20:30:00,47.4,7.1,30.56,SE,140,1.0,1.0,19,0.00,,,0.00,Wunderground v.1.15,2013-11-06 04:30:00,
2013-11-05 20:35:00,47.1,8.0,30.56,SE,140,0.0,8.0,20,0.00,,,0.00,Wunderground v.1.15,2013-11-06 04:35:00,
2013-11-05 20:45:00,47.4,7.1,30.56,South,190,1.0,8.0,19,0.00,,,0.00,Wunderground v.1.15,2013-11-06 04:45:00,
2013-11-05 20:50:00,47.6,8.4,30.56,South,190,1.0,1.0,20,0.00,,,0.00,Wunderground v.1.15,2013-11-06 04:50:00,
2013-11-05 21:00:00,46.6,7.6,30.57,South,191,0.0,7.0,20,0.00,,,0.00,Wunderground v.1.15,2013-11-06 05:00:00,
2013-11-05 21:05:00,46.0,8.2,30.57,SSW,193,1.0,7.0,21,0.00,,,0.00,Wunderground v.1.15,2013-11-06 05:05:00,
2013-11-05 21:10:00,45.6,7.8,30.57,SSW,193,0.0,7.0,21,0.00,,,0.00,Wunderground v.1.15,2013-11-06 05:10:00,
2013-11-05 21:15:00,45.6,7.8,30.58,SSW,193,0.0,7.0,21,0.00,,,0.00,Wunderground v.1.15,2013-11-06 05:15:00,
2013-11-05 21:20:00,45.9,8.1,30.58,SSW,193,1.0,7.0,21,0.00,,,0.00,Wunderground v.1.15,2013-11-06 05:20:00,
2013-11-05 21:30:00,45.2,7.5,30.58,SSW,194,2.0,7.0,21,0.00,,,0.00,Wunderground v.1.15,2013-11-06 05:30:00,
2013-11-05 21:35:00,45.2,7.5,30.59,SSW,194,1.0,7.0,21,0.00,,,0.00,Wunderground v.1.15,2013-11-06 05:35:00,
2013-11-05 21:45:00,45.3,7.6,30.58,SSW,194,1.0,3.0,21,0.00,,,0.00,Wunderground v.1.15,2013-11-06 05:45:00,
2013-11-05 21:50:00,45.7,7.9,30.58,SSW,197,2.0,2.0,21,0.00,,,0.00,Wunderground v.1.15,2013-11-06 05:50:00,
2013-11-05 21:55:00,45.3,7.6,30.59,SSW,197,2.0,3.0,21,0.00,,,0.00,Wunderground v.1.15,2013-11-06 05:55:00,
2013-11-05 22:00:00,45.2,7.5,30.58,SSW,205,2.0,2.0,21,0.00,,,0.00,Wunderground v.1.15,2013-11-06 06:00:00,
2013-11-05 22:10:00,45.0,7.3,30.58,SW,215,2.0,3.0,21,0.00,,,0.00,Wunderground v.1.15,2013-11-06 06:10:00,
2013-11-05 22:15:00,45.2,7.5,30.58,SW,215,1.0,3.0,21,0.00,,,0.00,Wunderground v.1.15,2013-11-06 06:15:00,
2013-11-05 22:25:00,45.5,7.8,30.58,SW,216,2.0,4.0,21,0.00,,,0.00,Wunderground v.1.15,2013-11-06 06:25:00,
2013-11-05 22:30:00,45.3,7.6,30.58,SW,228,2.0,4.0,21,0.00,,,0.00,Wunderground v.1.15,2013-11-06 06:30:00,
2013-11-05 22:35:00,45.2,7.5,30.58,SW,228,2.0,4.0,21,0.00,,,0.00,Wunderground v.1.15,2013-11-06 06:35:00,
2013-11-05 22:40:00,45.2,7.5,30.58,SW,228,2.0,2.0,21,0.00,,,0.00,Wunderground v.1.15,2013-11-06 06:40:00,
2013-11-05 22:45:00,44.8,7.2,30.58,SW,230,2.0,4.0,21,0.00,,,0.00,Wunderground v.1.15,2013-11-06 06:45:00,
2013-11-05 22:50:00,44.7,8.1,30.58,SW,234,2.0,6.0,22,0.00,,,0.00,Wunderground v.1.15,2013-11-06 06:50:00,
2013-11-05 22:55:00,44.3,7.8,30.58,WSW,242,2.0,6.0,22,0.00,,,0.00,Wunderground v.1.15,2013-11-06 06:55:00,
2013-11-05 23:05:00,44.1,7.6,30.59,WSW,250,3.0,6.0,22,0.00,,,0.00,Wunderground v.1.15,2013-11-06 07:05:00,
2013-11-05 23:10:00,43.9,7.4,30.58,WSW,251,2.0,2.0,22,0.00,,,0.00,Wunderground v.1.15,2013-11-06 07:10:00,
2013-11-05 23:15:00,43.9,7.4,30.59,WSW,251,2.0,6.0,22,0.00,,,0.00,Wunderground v.1.15,2013-11-06 07:15:00,
2013-11-05 23:25:00,44.0,7.5,30.59,WSW,253,3.0,6.0,22,0.00,,,0.00,Wunderground v.1.15,2013-11-06 07:25:00,
2013-11-05 23:30:00,43.8,7.4,30.59,West,264,3.0,5.0,22,0.00,,,0.00,Wunderground v.1.15,2013-11-06 07:30:00,
2013-11-05 23:40:00,45.0,8.4,30.59,West,264,3.0,3.0,22,0.00,,,0.00,Wunderground v.1.15,2013-11-06 07:40:00,
2013-11-05 23:45:00,45.3,7.6,30.60,West,264,2.0,5.0,21,0.00,,,0.00,Wunderground v.1.15,2013-11-06 07:45:00,
2013-11-05 23:50:00,44.9,7.3,30.60,West,264,3.0,6.0,21,0.00,,,0.00,Wunderground v.1.15,2013-11-06 07:50:00,